Philadelphia Wings Airport, PA

3:56 AM EST on December 11, 2019 (GMT -0500)
Philadelphia Wings Airport

Weather History for KLOM - November, 2019

Change the Weather History Date:

Monday, November 11, 2019

  Actual Average (WUND) Record (WUND)
Temperature  
Mean Temperature 48 °F -  
Max Temperature 64 °F - - (-1)
Min Temperature 31 °F - - (-1)
Degree Days  
Heating Degree Days 18    
Moisture  
Dew Point 39 °F    
Average Humidity 72    
Maximum Humidity 99    
Minimum Humidity 44    
Precipitation  
Precipitation 0.00 in - - ()
Sea Level Pressure  
Sea Level Pressure 29.99 in    
Wind  
Wind Speed 2 mph (South)    
Max Wind Speed 13 mph    
Max Gust Speed -    
Visibility 9 miles    
Events      
Averages and records for this station are not official NWS values.
T = Trace of Precipitation, MM = Missing Value Source: NWS Daily Summary

Daily Weather History Graph

Daily Weather History Graph

Search for Another Location

Airport or City:

Astronomy

Nov. 11, 2019 Rise Set
Actual Time 6:41 AM EST 4:48 PM EST
Civil Twilight 6:12 AM EST 5:16 PM EST
Nautical Twilight 5:40 AM EST 5:49 PM EST
Astronomical Twilight 5:08 AM EST 6:21 PM EST
Moon 4:42 PM EST 5:30 AM EST
Length of Visible Light 11h 04m
Length of Day
10h 06m
Waxing Gibbous, 99% of the Moon is Illuminated
Nov 11
Waxing Gibbous
Nov 12
Full
Nov 19
Last Quarter
Nov 26
New
Dec 4
First Quarter

Hourly Weather History & Observations

Time (EST) Temp. Dew Point Humidity Pressure Visibility Wind Dir Wind Speed Gust Speed Precip Events Conditions
12:15 AM 35.6 °F 34.3 °F 95% 30.07 in 10.0 mi Calm Calm - N/A   Scattered Clouds
12:35 AM 35.8 °F 34.3 °F 94% 30.07 in 10.0 mi Calm Calm - N/A   Mostly Cloudy
12:55 AM 36.5 °F 35.4 °F 96% 30.07 in 10.0 mi Calm Calm - N/A   Overcast
1:15 AM 37.2 °F 35.8 °F 95% 30.07 in 10.0 mi Calm Calm - N/A   Overcast
1:35 AM 37.2 °F 35.4 °F 93% 30.07 in 10.0 mi Calm Calm - N/A   Scattered Clouds
1:55 AM 37.0 °F 35.2 °F 93% 30.06 in 10.0 mi Calm Calm - N/A   Clear
2:10 AM 37.0 °F 35.2 °F 93% 30.06 in 10.0 mi Calm Calm - N/A   Clear
2:35 AM 35.4 °F 34.5 °F 97% 30.06 in 10.0 mi Calm Calm - N/A   Clear
2:55 AM 35.4 °F 34.3 °F 96% 30.06 in 10.0 mi Calm Calm - N/A   Clear
3:35 AM 34.2 °F 33.6 °F 98% 30.05 in 10.0 mi Calm Calm - N/A   Clear
3:55 AM 33.6 °F 33.1 °F 98% 30.06 in 10.0 mi Calm Calm - N/A   Clear
4:15 AM 33.3 °F 32.7 °F 98% 30.06 in 10.0 mi Calm Calm - N/A   Clear
4:35 AM 33.3 °F 32.9 °F 99% 30.05 in 7.0 mi Calm Calm - N/A   Clear
4:55 AM 32.4 °F 31.8 °F 98% 30.05 in 7.0 mi Calm Calm - N/A   Clear
5:15 AM 32.5 °F 32.2 °F 99% 30.06 in 7.0 mi Calm Calm - N/A   Clear
5:35 AM 32.5 °F 32.2 °F 99% 30.07 in 7.0 mi Calm Calm - N/A   Clear
5:55 AM 32.5 °F 32.4 °F 99% 30.07 in 7.0 mi Calm Calm - N/A   Clear
6:15 AM 32.7 °F 32.4 °F 99% 30.07 in 7.0 mi Calm Calm - N/A   Clear
6:35 AM 32.2 °F 32.0 °F 99% 30.08 in 4.0 mi Calm Calm - N/A   Clear
6:55 AM 31.6 °F 31.5 °F 99% 30.08 in 3.0 mi Calm Calm - N/A   Clear
7:15 AM 32.9 °F 32.7 °F 99% 30.08 in 4.0 mi Calm Calm - N/A   Clear
7:35 AM 34.7 °F 34.5 °F 99% 30.09 in 4.0 mi Calm Calm - N/A   Clear
7:55 AM 38.1 °F 36.9 °F 95% 30.09 in 10.0 mi Calm Calm - N/A   Clear
8:15 AM 41.4 °F 38.1 °F 88% 30.09 in 10.0 mi Calm Calm - N/A   Clear
8:35 AM 43.3 °F 37.9 °F 81% 30.10 in 10.0 mi Calm Calm - N/A   Clear
8:55 AM 45.5 °F 39.4 °F 79% 30.09 in 10.0 mi Calm Calm - N/A   Clear
9:15 AM 47.8 °F 40.5 °F 76% 30.09 in 10.0 mi Calm Calm - N/A   Clear
9:35 AM 50.0 °F 41.2 °F 72% 30.09 in 10.0 mi Calm Calm - N/A   Clear
9:55 AM 51.8 °F 42.1 °F 69% 30.09 in 10.0 mi SW 4.6 mph - N/A   Clear
10:15 AM 53.4 °F 42.4 °F 66% 30.09 in 10.0 mi South 3.5 mph - N/A   Clear
10:35 AM 53.4 °F 41.9 °F 65% 30.08 in 10.0 mi Calm Calm - N/A   Clear
10:55 AM 55.0 °F 42.1 °F 62% 30.08 in 10.0 mi Calm Calm - N/A   Clear
11:15 AM 55.8 °F 41.4 °F 58% 30.06 in 10.0 mi SSW 3.5 mph - N/A   Clear
11:35 AM 58.1 °F 41.9 °F 55% 30.06 in 10.0 mi SW 3.5 mph - N/A   Clear
11:55 AM 58.5 °F 41.5 °F 53% 30.05 in 10.0 mi Calm Calm - N/A   Clear
12:15 PM 59.5 °F 40.3 °F 49% 30.04 in 10.0 mi WSW 3.5 mph - N/A   Clear
12:35 PM 60.3 °F 41.0 °F 49% 30.03 in 10.0 mi Calm Calm - N/A   Clear
12:55 PM 61.2 °F 41.2 °F 48% 30.03 in 10.0 mi Calm Calm - N/A   Clear
1:15 PM 61.0 °F 40.6 °F 47% 30.02 in 10.0 mi Calm Calm - N/A   Clear
1:35 PM 61.9 °F 41.2 °F 47% 30.01 in 10.0 mi Calm Calm - N/A   Clear
1:55 PM 63.3 °F 41.7 °F 45% 30.00 in 10.0 mi Calm Calm - N/A   Clear
2:15 PM 63.5 °F 41.0 °F 44% 29.99 in 10.0 mi ESE 4.6 mph - N/A   Clear
2:35 PM 63.9 °F 42.1 °F 45% 29.99 in 7.0 mi ESE 4.6 mph - N/A   Clear
2:55 PM 64.4 °F 42.1 °F 44% 29.97 in 10.0 mi SSE 4.6 mph - N/A   Clear
3:15 PM 63.0 °F 43.0 °F 48% 29.97 in 10.0 mi SE 5.8 mph - N/A   Clear
3:35 PM 61.9 °F 42.3 °F 49% 29.96 in 10.0 mi SE 6.9 mph - N/A   Clear
3:55 PM 61.0 °F 42.1 °F 50% 29.95 in 10.0 mi SSE 5.8 mph - N/A   Clear
4:15 PM 59.9 °F 41.7 °F 51% 29.95 in 10.0 mi SE 4.6 mph - N/A   Clear
4:35 PM 58.5 °F 41.2 °F 53% 29.94 in 10.0 mi SSE 3.5 mph - N/A   Clear
4:55 PM 58.1 °F 41.0 °F 53% 29.94 in 10.0 mi Calm Calm - N/A   Clear
5:15 PM 54.3 °F 41.0 °F 61% 29.92 in 10.0 mi Calm Calm - N/A   Clear
5:35 PM 54.7 °F 41.4 °F 61% 29.91 in 10.0 mi ESE 3.5 mph - N/A   Clear
5:55 PM 55.9 °F 41.0 °F 57% 29.90 in 10.0 mi SSE 4.6 mph - N/A   Clear
6:15 PM 55.9 °F 41.0 °F 57% 29.89 in 10.0 mi SSE 4.6 mph - N/A   Clear
6:35 PM 56.8 °F 41.5 °F 57% 29.88 in 10.0 mi SSE 5.8 mph - N/A   Clear
6:55 PM 56.3 °F 41.0 °F 57% 29.87 in 10.0 mi SSE 5.8 mph - N/A   Clear
7:15 PM 56.8 °F 40.3 °F 54% 29.88 in 10.0 mi South 5.8 mph - N/A   Clear
7:35 PM 55.9 °F 40.3 °F 56% 29.87 in 10.0 mi South 5.8 mph - N/A   Clear
7:55 PM 55.8 °F 40.5 °F 56% 29.87 in 10.0 mi South 8.1 mph - N/A   Clear
8:15 PM 55.0 °F 42.1 °F 62% 29.88 in 10.0 mi SSW 6.9 mph - N/A   Clear
8:35 PM 54.0 °F 43.5 °F 68% 29.87 in 10.0 mi South 8.1 mph - N/A   Clear
8:55 PM 54.1 °F 44.2 °F 69% 29.87 in 10.0 mi SSW 8.1 mph - N/A   Clear
9:15 PM 54.5 °F 44.2 °F 68% 29.86 in 10.0 mi South 9.2 mph - N/A   Clear
9:35 PM 54.5 °F 44.1 °F 68% 29.86 in 10.0 mi SSW 5.8 mph - N/A   Clear
9:55 PM 54.3 °F 43.9 °F 68% 29.85 in 10.0 mi South 8.1 mph - N/A   Clear
10:15 PM 54.0 °F 43.9 °F 69% 29.84 in 10.0 mi South 8.1 mph - N/A   Clear
10:35 PM 54.3 °F 44.1 °F 68% 29.82 in 10.0 mi South 10.4 mph - N/A   Clear
10:55 PM 54.3 °F 44.1 °F 68% 29.81 in 10.0 mi South 11.5 mph - N/A   Clear
11:15 PM 54.3 °F 44.1 °F 68% 29.80 in 10.0 mi South 12.7 mph - N/A   Clear
11:35 PM 54.1 °F 44.2 °F 69% 29.79 in 10.0 mi South 11.5 mph - N/A   Clear
11:55 PM 54.5 °F 44.2 °F 68% 29.78 in 10.0 mi South 11.5 mph - N/A   Clear